Weather History for KCNK - March, 2013

Change the Weather History Date:

Sunday, March 31, 2013

  Actual Average Record
Temperature  
Mean Temperature 52 °F 48 °F  
Max Temperature 64 °F 60 °F 92 °F (1946)
Min Temperature 40 °F 36 °F 10 °F (1886)
Degree Days  
Heating Degree Days 13 17  
Month to date heating degree days 817 684  
Since 1 July heating degree days 4836 4891  
Cooling Degree Days 0 0  
Month to date cooling degree days 0 1  
Year to date cooling degree days 0 1  
Growing Degree Days 2 (Base 50)    
Moisture  
Dew Point 34 °F    
Average Humidity 58    
Maximum Humidity 93    
Minimum Humidity 23    
Precipitation  
Precipitation T in 0.09 in 1.33 in (1927)
Month to date precipitation 0.89 2.01  
Year to date precipitation 2.37 3.38  
Snow  
Snow 0.00 in 0.10 in 3.00 in (1970)
Month to date snowfall 4.3 2.8  
Year to date snowfall 17.9 13.2  
Since 1 July snowfall 26.4 19.7  
Snow Depth 0.00 in    
Sea Level Pressure  
Sea Level Pressure 30.00 in    
Wind  
Wind Speed 9 mph (NW)    
Max Wind Speed 25 mph    
Max Gust Speed 32 mph    
Visibility 10 miles    
Events Rain    
T = Trace of Precipitation, MM = Missing Value Source: NWS Daily Summary

Daily Weather History Graph

Daily Weather History Graph

Search for Another Location

Airport or City:

Trip Planner

Search our weather history database for the weather conditions in past years. The results will help you decide how hot, cold, wet, or windy it might be!

Date:

Astronomy

Mar. 31, 2013 Rise Set
Actual Time 7:15 AM CDT 7:53 PM CDT
Civil Twilight 6:48 AM CDT 8:21 PM CDT
Nautical Twilight 6:16 AM CDT 8:53 PM CDT
Astronomical Twilight 5:44 AM CDT 9:26 PM CDT
Moon 12:00 AM CDT (3/31) 10:06 AM CDT (3/31)
Length of Visible Light 13h 32m
Length of Day
12h 37m
Waning Gibbous, 77% of the Moon is Illuminated
Mar 31
Waning Gibbous
Apr 2
Last Quarter
Apr 10
New
Apr 18
First Quarter
Apr 25
Full

Hourly Weather History & Observations

Time (CDT) Temp. Windchill Dew Point Humidity Pressure Visibility Wind Dir Wind Speed Gust Speed Precip Events Conditions
12:55 AM 48.9 °F - 45.0 °F 86% 30.03 in 10.0 mi West 8.1 mph - 0.05 in Rain Light Rain
1:55 AM 48.0 °F - 44.1 °F 86% 30.02 in 10.0 mi WNW 8.1 mph - 0.00 in   Partly Cloudy
2:55 AM 46.9 °F - 44.1 °F 90% 30.02 in 10.0 mi West 10.4 mph - N/A   Overcast
3:55 AM 45.0 °F 40.1 °F 42.1 °F 90% 30.01 in 10.0 mi West 9.2 mph - N/A   Clear
4:55 AM 41.0 °F 36.4 °F 39.9 °F 96% 30.02 in 10.0 mi West 6.9 mph - N/A   Clear
5:55 AM 41.0 °F 35.2 °F 39.0 °F 93% 30.02 in 10.0 mi West 9.2 mph - N/A   Clear
6:55 AM 41.0 °F 35.8 °F 37.9 °F 89% 30.01 in 10.0 mi West 8.1 mph - N/A   Clear
7:55 AM 41.0 °F 36.4 °F 37.0 °F 86% 30.04 in 10.0 mi West 6.9 mph - N/A   Clear
8:55 AM 45.0 °F 38.9 °F 37.0 °F 74% 30.04 in 10.0 mi NW 12.7 mph - N/A   Clear
9:55 AM 48.9 °F - 39.0 °F 69% 30.04 in 10.0 mi NNW 11.5 mph - N/A   Clear
10:55 AM 54.0 °F - 39.0 °F 57% 30.04 in 10.0 mi NNW 17.3 mph 21.9 mph N/A   Clear
11:55 AM 55.9 °F - 33.1 °F 42% 30.04 in 10.0 mi NNW 15.0 mph - N/A   Clear
12:55 PM 57.9 °F - 30.9 °F 36% 30.03 in 10.0 mi North 13.8 mph - N/A   Clear
1:55 PM 61.0 °F - 28.0 °F 29% 30.01 in 10.0 mi NW 11.5 mph - N/A   Clear
2:55 PM 62.1 °F - 28.0 °F 28% 29.99 in 10.0 mi WNW 8.1 mph - N/A   Clear
3:55 PM 63.0 °F - 25.0 °F 24% 29.97 in 10.0 mi NNE 6.9 mph - N/A   Clear
4:55 PM 62.1 °F - 24.1 °F 23% 29.96 in 10.0 mi Calm Calm - N/A   Clear
5:55 PM 62.1 °F - 25.0 °F 24% 29.95 in 10.0 mi Calm Calm - N/A   Clear
6:55 PM 61.0 °F - 26.1 °F 26% 29.95 in 10.0 mi Calm Calm - N/A   Clear
7:55 PM 52.0 °F - 30.0 °F 43% 29.93 in 10.0 mi SSE 8.1 mph - N/A   Clear
8:55 PM 52.0 °F - 28.9 °F 41% 29.91 in 10.0 mi South 10.4 mph - N/A   Mostly Cloudy
9:55 PM 51.1 °F - 30.0 °F 44% 29.93 in 10.0 mi SSE 5.8 mph - N/A   Overcast
10:55 PM 52.0 °F - 34.0 °F 50% 30.00 in 10.0 mi NNE 11.5 mph - N/A   Overcast
11:55 PM 46.0 °F 39.3 °F 28.0 °F 50% 30.03 in 10.0 mi NE 16.1 mph 27.6 mph N/A   Scattered Clouds